Погода в Апуке

Погода в Апуке : погода сейчас, прогноз погоды и архив. Всё, что Вы хотите узнать о погоде в Апуке!

Хотите узнать прогноз погоды в Апуке? Тогда Вам сюда: Погода в Апуке

Поиск расширенной информации на нашем сайте:

Другие новости

Новости СМИ2

Главная страница сайта

Новости сайта

03.07.2017

Напоминаем, что на нашем специализированном сайте Метеоцентр.Азия вы можете получить высокодетализированные автоматические прогнозы погоды по пунктам России, СНГ и мира в авиационном формате (включающие направление и скорость ветра, видимость, явления погоды, количество и форму облачности, нижнюю и верхнюю границу облачности).


Погода в Апуке - сегодня

Время (UTC), дата Ветер
(°,м/с) 
Видим.   Явления Облачность Т
(°С)
Тd
(°С)
f(%) Тe
(°С)
Pmin
(гПа)
dP
(гПа)
Po
(мм)
O2
(г/м3)
Тmin Tmax R s Состояние
почвы
15 19.04.18 060 (СВ) 20000 м    ясно 
-3.2 -5.9 82 -6  1005.1  1.6  753  308           
18 19.04.18 070 (В) 20000 м    6/6 600 м 
[Sc]
-2.1 -4.4 84 -6  1005.8  0.7  754  307           
00 20.04.18 080 (В) 20000 м    10/10 600 м 
[Sc]
+1.1 -1.8 81 -3  1005.3  0.1  754  303           
03 20.04.18 070 (В) 20000 м    10/10 600 м 
[Sc]
+0.9 -0.5 90 -3  1005.3  754  303           
06 20.04.18 030 (СВ) 20000 м    10/10 600 м 
[Sc]
+1.2 -0.5 88 1005.6  0.3  754  302           
12 20.04.18 080 (В) 20000 м    10/10 600 м 
[Sc]
+0.5 -1.5 86 -3  1008.4  1.7  756  304           
15 20.04.18 080 (В) 20000 м    10/10 600 м 
[Sc]
+0.3 -1.1 90 -2  1008.4  756  304           
18 20.04.18 060 (СВ) 4000 м  слаб. ливневой снег  10/10 600 м кучево-дожд. 
[Cb cap]
+0.3 -0.8 92 -4  1009.2  0.8  756  305           
21 20.04.18 090 (В) 8{12}  20000 м  {ливн. осадки}  9/9 600 м 
[Sc]
+1.2 -0.2 90 -3  1010.2  757  304  +0.2    67  неравномерный
мокрый или
старый снег
100% 
09 21.04.18 110 (В) 11-13{15}  20000 м    10/10 600 м 
[Sc]
-0.3 -4.4 74 -6  1012.7  -0.3  759  307    +1.7       
12 21.04.18 080 (В) 6{12}  20000 м    5/5 600 м 
[Sc]
-2.1 -6.6 71 -6  1013.5  0.8  760  309           
15 21.04.18 080 (В) 20000 м    ясно 
-4.8 -7.4 82 -9  1014.5  760  313           
18 21.04.18 100 (В) 20000 м    3/3 600 м 
[Sc]
-1.7 -5.7 74 -6  1015.4  0.9  761  309           
00 22.04.18 100 (В) 20000 м    10/10 600 м 
[Sc]
-0.7 -4.2 77 -4  1015.6  0.2  761  308           
03 22.04.18 090 (В) 20000 м    10/10 600 м 
[Sc]
-0.5 -4.3 75 -4  1015.6  761  308           
06 22.04.18 120 (ЮВ) 20000 м    6/6 600 м 
[Sc]
-1.4 -5.7 72 -5  1014.7  -0.9  761  309           
12 22.04.18 090 (В) 20000 м    10/10 600 м 
[Sc]
-3.7 -8.2 71 -8  1014.7  761  312           
15 22.04.18 070 (В) 20000 м    6/6 600 м 
[Sc]
-6.9 -9.9 79 -12  1013.8  -0.9  760  315           
18 22.04.18 050 (СВ) 20000 м    3/3 600 м 
[Sc]
-7.5 -11 76 -10  1012.2  -1.6  759  315           
00 23.04.18 080 (В) 20000 м    ясно 
-2.3 -9 60 -5  1012.9  0.6  759  309           
03 23.04.18 090 (В) 20000 м    ясно 
-1.1 -9.7 52 -3  1009.3  -3.6  757  307           
06 23.04.18 270 (З) 20000 м    ясно 
-0.4 -8.2 56 -1  1006  -3.3  754  305           
09 23.04.18 100 (В) 20000 м    1/0 
-3.3 -8.5 67 -3  1005.1  -0.9  753  308    -0.2       
12 23.04.18 060 (СВ) 20000 м    ясно 
-7.8 -10.5 81 -11  1002.8  -2.3  752  313           
15 23.04.18 210 (ЮЗ) 20000 м    ясно 
-2.4 -5.4 80 -3  1001.5  -1.3  751  306           
Время (UTC), дата Ветер
(°,м/с) 
Видим.   Явления Облачность Т
(°С)
Тd
(°С)
f(%) Тe
(°С)
Pmin
(гПа)
dP
(гПа)
Po
(мм)
O2
(г/м3)
Тmin Tmax R s Состояние
почвы

Для получения пояснительной информации подведите курсор к названию столбца.

ПОГОДА в Апуке - архив

Всё, что Вы хотите узнать о погоде в Апуке - удобно и подробно!

Выберите нужную дату (начиная с 1 января 2015* года) и нажмите кнопку "Найти".
Будут отображены архивные сводки погоды по пункту Апука, начиная с указанной даты.


Отображать данные в формате CSV (для использования в таблицах Excel)


Внимание! Наш архив погоды предназначен исключительно для личного некоммерческого использования в познавательных целях. Если Вам необходимы официальные справки о состоянии погоды (для производственных, юридических, коммерческих и т.п. целей), обращайтесь в органы Росгидромета.

*Примечание: данная дата относится к архиву по метеостанциям СССР (Россия, СНГ, Балтия).
Архив по метеостанциям Зарубежной Европы и Азии (кроме Китая) хранится 10 дней, по другим регионам земного шара (Китай, Африка, Америка, Австралия, Океания) - 1 день.

Апука - район местоположения метеостанции


Название, широта, долгота, высота метеостанции:
Апука 60.4°ш. 169.7°д. 5 м над ур. моря [Российская Федерация]

Дополнительная информация

В oтличие oт бoльшинства пoгoдных сайтoв мы публикуем пoдрoбную метеoинфoрмацию в детальнoм прoфессиoнальнoм фoрмате.

Характеристики температуры и влажнoсти вoздуха измеряются на высoте 2 м в тени вдали oт зданий и деревьев.
Скoрoсть ветра измеряется на высoте 10 м (на урoвне рoста челoвека скoрoсть ветра ниже в 1.5-2 раза). Если метеoстанция нахoдится в гoрoде или в лесу, тo скoрoсть ветра занижена на 2-4 м/с пo сравнению с oткрытым местoм. Скoрoсть ветра над акватoриями крупных рек и oзёр, а также на вершинах хoлмoв на 2-5 м/с выше, чем в oбычных услoвиях.
Атмoсфернoе давление в разных тoчках местнoсти мoжет значительнo oтличаться oт давления на метеoстанции, в зависимoсти oт услoвий рельефа (при пoдъёме на 10 м давление пoнижается примернo на 1 мм рт.ст.).